Weather History for Camarillo, CA

Change the Weather History Date:

Saturday, February 22, 2014

  Actual Average Record
Temperature  
Mean Temperature 56 °F 54 °F  
Max Temperature 70 °F 65 °F 90 °F (2002)
Min Temperature 42 °F 43 °F 33 °F (1962)
Degree Days  
Heating Degree Days 9 11  
Month to date heating degree days 195 252  
Since 1 July heating degree days 914 1271  
Cooling Degree Days 0 0  
Month to date cooling degree days 1 0  
Year to date cooling degree days 28 7  
Growing Degree Days 6 (Base 50)    
Moisture  
Dew Point 43 °F    
Average Humidity 65    
Maximum Humidity 93    
Minimum Humidity 37    
Precipitation  
Precipitation 0.00 in 0.16 in 0.83 in (1998)
Month to date precipitation 0.36 2.88  
Year to date precipitation 0.37 6.35  
Since 1 July precipitation 1.19 10.59  
Sea Level Pressure  
Sea Level Pressure 29.92 in    
Wind  
Wind Speed 2 mph (WSW)    
Max Wind Speed 9 mph    
Max Gust Speed -    
Visibility 8 miles    
Events Fog    
T = Trace of Precipitation, MM = Missing Value Source: NWS Daily Summary

Daily Weather History Graph

Daily Weather History Graph

Search for Another Location

Airport:

Trip Planner

Search our weather history database for the weather conditions in past years. The results will help you decide how hot, cold, wet, or windy it might be!

Date:

Astronomy

Feb. 22, 2014 Rise Set
Actual Time 6:33 AM PST 5:46 PM PST
Civil Twilight 6:08 AM PST 6:11 PM PST
Nautical Twilight 5:38 AM PST 6:41 PM PST
Astronomical Twilight 5:09 AM PST 7:10 PM PST
Moon 12:27 AM PST (2/22) 11:08 AM PST (2/22)
Length of Visible Light 12h 03m
Length of Day
11h 13m
Waning Gibbous, 49% of the Moon is Illuminated
Feb 22
Waning Gibbous
Mar 1
New
Mar 8
First Quarter
Mar 16
Full
Mar 23
Last Quarter

Hourly Weather History & Observations

Time (PST) Temp. Dew Point Humidity Pressure Visibility Wind Dir Wind Speed Gust Speed Precip Events Conditions
12:55 AM 50.0 °F 45.0 °F 83% 29.93 in 9.0 mi Calm Calm - N/A   Clear
1:20 AM 46.4 °F 42.8 °F 87% 29.91 in - Calm Calm - N/A   Partly Cloudy
1:27 AM 44.6 °F 42.8 °F 93% 29.90 in 0.2 mi Calm Calm - N/A Fog Fog
1:55 AM 46.0 °F 45.0 °F 96% 29.93 in 0.2 mi Calm Calm - N/A Fog Fog
2:13 AM 46.4 °F 44.6 °F 93% 29.90 in 1.2 mi Calm Calm - N/A   Partly Cloudy
2:16 AM 46.4 °F 44.6 °F 93% 29.90 in 2.5 mi Calm Calm - N/A   Partly Cloudy
2:23 AM 48.2 °F 46.4 °F 93% 29.90 in 7.0 mi Calm Calm - N/A   Clear
2:55 AM 46.9 °F 44.1 °F 90% 29.93 in 10.0 mi Calm Calm - N/A   Clear
3:55 AM 46.0 °F 37.9 °F 73% 29.93 in 10.0 mi Calm Calm - N/A   Clear
4:55 AM 45.0 °F 36.0 °F 71% 29.92 in 10.0 mi Calm Calm - N/A   Clear
5:55 AM 44.1 °F 36.0 °F 73% 29.94 in 10.0 mi Calm Calm - N/A   Clear
6:55 AM 45.0 °F 36.0 °F 71% 29.95 in 10.0 mi Calm Calm - N/A   Clear
7:55 AM 52.0 °F 37.0 °F 57% 29.96 in 10.0 mi ENE 3.5 mph - N/A   Clear
8:55 AM 59.0 °F 42.1 °F 53% 29.96 in 9.0 mi Calm Calm - N/A   Clear
9:55 AM 61.0 °F 41.0 °F 48% 29.97 in 10.0 mi West 3.5 mph - N/A   Clear
10:55 AM 64.9 °F 39.9 °F 40% 29.96 in 9.0 mi South 5.8 mph - N/A   Clear
11:55 AM 64.9 °F 48.9 °F 56% 29.95 in 9.0 mi SSW 8.1 mph - N/A   Clear
12:55 PM 69.1 °F 46.9 °F 45% 29.92 in 9.0 mi West 8.1 mph - N/A   Clear
1:55 PM 68.0 °F 45.0 °F 43% 29.90 in 10.0 mi West 9.2 mph - N/A   Clear
2:55 PM 69.1 °F 43.0 °F 39% 29.89 in 10.0 mi West 8.1 mph - N/A   Clear
3:55 PM 66.9 °F 45.0 °F 45% 29.88 in 10.0 mi WSW 6.9 mph - N/A   Clear
4:55 PM 64.0 °F 48.0 °F 56% 29.89 in 10.0 mi WSW 6.9 mph - N/A   Clear
5:55 PM 59.0 °F 48.0 °F 67% 29.90 in 10.0 mi West 3.5 mph - N/A   Clear
6:55 PM 55.9 °F 50.0 °F 80% 29.91 in 8.0 mi Calm Calm - N/A   Clear
7:55 PM 55.9 °F 51.1 °F 84% 29.92 in 7.0 mi Calm Calm - N/A   Clear
8:55 PM 50.0 °F 45.0 °F 83% 29.94 in 9.0 mi Calm Calm - N/A   Clear
9:55 PM 52.0 °F 44.1 °F 74% 29.94 in 10.0 mi ENE 3.5 mph - N/A   Clear
10:55 PM 46.9 °F 41.0 °F 80% 29.95 in 10.0 mi Calm Calm - N/A   Clear
11:55 PM 50.0 °F 41.0 °F 71% 29.94 in 10.0 mi ENE 6.9 mph - N/A   Clear